Simultaneous Nadir Overpasses (SNOs) Predictions

Prediction of SNOs between TERRA and METOP-C Satellite Orbit:

Table of predicted SNOs for the next 14.0 days since TLE Epoch: 4/17/2021
Index Date (TERRA) Time (TERRA) Lat,Lon (TERRA) SZA (TERRA ) Date (METOP-C) Time (METOP-C) Lat,Lon (METOP-C) SZA (METOP-C ) Distance(km) Time Diff (sec)
1 04/17/2021 04:29:27 81.29, 158.69 73.46 04/17/2021 04:29:27 81.29, 158.60 73.46 1.44 0
2 04/17/2021 05:18:53 -81.30, -33.42 106.52 04/17/2021 05:20:05 -81.30, -33.33 106.47 1.56 72
3 04/19/2021 23:14:13 -81.29, 57.50 107.48 04/19/2021 23:13:07 -81.29, 57.59 107.50 1.38 66
4 04/20/2021 00:03:39 81.29,-134.75 72.53 04/20/2021 00:03:48 81.29,-134.83 72.52 1.42 9
5 04/22/2021 18:48:26 -81.29, 124.06 108.40 04/22/2021 18:47:29 -81.29, 124.16 108.41 1.68 57
6 04/22/2021 19:37:52 81.30, -68.22 71.61 04/22/2021 19:38:10 81.29, -68.28 71.61 1.20 18
7 04/25/2021 14:22:40 -81.28,-169.80 109.35 04/25/2021 14:21:52 -81.29,-169.67 109.35 2.29 48
8 04/25/2021 15:12:05 81.30, -1.73 70.71 04/25/2021 15:12:32 81.30, -1.75 70.72 0.77 27
9 04/28/2021 09:56:52 -81.28,-103.32 110.22 04/28/2021 09:56:14 -81.28,-103.51 110.26 3.34 38



Historial Predications of SNOs between TERRA and METOP-C
